Date String (YYYY-MM-DD hh:mm:ss) UTC,Instrument flags,absolute air pressure of the measurement (hPa),sample flow rate (lpm),inlet stack bypass flow (lpm),air temperature of the measurement (°C),ambient temperature measured by the external sensor (°C),aerosol sample conditioner tube jacket temperature (°C),OPC LED temperature (°C),internal box temperature (°C),relative humidity of the measurement (%),span deviation,mass concentration of particles derived from Lorenz-Mie calculation of OPC scattering (μg/m³),mass concentration of particles derived from Lorenz-Mie calculation of OPC scattering (μg/m³),mass concentration of particles derived from Lorenz-Mie calculation of OPC scattering (μg/m³)
DateTimeUTC,F1_M11,P_M11,Q1_M11,Q2_M11,T1_M11,T2_M11,T3_M11,T4_M11,T5_M11,U1_M11,ZSPAN_M11,X2_M11,X0_M11,X1_M11
2024-04-29 13:00:00,SystemResetWarning,0826.6,4.98,000.00,024.1,023.4,000.0,032.7,026.0,019.5,0000.0,0001.85,0003.70,0000.98
2024-04-29 13:01:00,SystemResetWarning,0826.6,5.01,000.00,024.1,023.3,000.0,032.7,026.0,019.4,0000.0,0001.78,0003.99,0001.00
2024-04-29 13:02:00,SystemResetWarning,0826.6,5.00,000.00,024.1,023.3,000.0,032.7,025.9,020.2,0000.0,0001.77,0004.88,0001.01
2024-04-29 13:03:00,SystemResetWarning,0826.6,5.01,000.00,024.1,023.3,000.0,032.7,025.9,019.8,0000.0,0001.81,0004.97,0001.04
2024-04-29 13:04:00,SystemResetWarning,0826.6,4.99,000.00,024.1,023.3,000.0,032.7,025.9,019.2,0000.0,0001.83,0004.97,0001.05
2024-04-29 13:05:00,SystemResetWarning,0826.6,4.99,000.00,024.1,023.3,000.0,032.7,025.9,019.9,0000.0,0001.89,0005.12,0001.07
2024-04-29 13:06:00,SystemResetWarning,0826.6,5.00,000.00,024.1,023.3,000.0,032.6,025.9,019.8,0000.0,0001.88,0005.11,0001.07
2024-04-29 13:07:00,SystemResetWarning,0826.6,4.99,000.00,024.1,023.3,000.0,032.6,025.9,019.6,0000.0,0001.92,0005.50,0001.08
2024-04-29 13:08:00,SystemResetWarning,0826.6,5.00,000.00,024.1,023.3,000.0,032.6,025.9,019.8,0000.0,0001.92,0005.46,0001.09
2024-04-29 13:09:00,SystemResetWarning,0826.6,5.01,000.00,024.1,023.3,000.0,032.6,025.9,019.8,0000.0,0001.87,0005.31,0001.11
2024-04-29 13:10:00,SystemResetWarning,0826.6,5.01,000.00,024.1,023.4,000.0,032.6,026.0,019.0,0000.0,0001.86,0005.29,0001.10
2024-04-29 13:11:00,SystemResetWarning,0826.6,5.00,000.00,024.1,023.4,000.0,032.6,026.0,018.3,0000.0,0001.85,0006.18,0001.09
2024-04-29 13:12:00,SystemResetWarning,0826.6,5.00,000.00,024.1,023.4,000.0,032.6,025.9,017.8,0000.0,0001.86,0006.66,0001.09
2024-04-29 13:13:00,SystemResetWarning,0826.6,5.00,000.00,024.1,023.4,000.0,032.6,025.9,017.7,0000.0,0001.87,0005.44,0001.10
2024-04-29 13:14:00,SystemResetWarning,0826.6,4.99,000.00,024.1,023.4,000.0,032.6,026.0,017.9,0000.0,0001.84,0005.41,0001.09
2024-04-29 13:15:00,SystemResetWarning,0826.7,5.01,000.00,024.1,023.4,000.0,032.6,026.0,018.0,0000.0,0001.83,0005.41,0001.07
2024-04-29 13:16:00,SystemResetWarning,0826.8,5.01,000.00,024.1,023.4,000.0,032.6,026.0,018.0,0000.0,0001.77,0005.22,0001.06
2024-04-29 13:17:00,SystemResetWarning,0826.8,5.00,000.00,024.1,023.4,000.0,032.6,026.0,017.7,0000.0,0001.82,0005.36,0001.06
2024-04-29 13:18:00,SystemResetWarning,0826.8,4.99,000.00,024.1,023.5,000.0,032.6,026.0,020.9,0000.0,0001.88,0005.25,0001.07
2024-04-29 13:19:00,SystemResetWarning,0826.8,4.99,000.00,024.1,023.5,000.0,032.6,026.0,021.0,0000.0,0001.87,0005.17,0001.09
2024-04-29 13:20:00,SystemResetWarning,0826.8,5.01,000.00,024.1,023.5,000.0,032.6,026.0,021.3,0000.0,0001.86,0005.11,0001.09
2024-04-29 13:21:00,SystemResetWarning,0826.9,5.01,000.00,024.2,023.5,000.0,032.6,026.0,020.1,0000.0,0001.86,0005.07,0001.11
2024-04-29 13:22:00,SystemResetWarning,0826.9,4.99,000.00,024.2,023.5,000.0,032.6,026.0,020.3,0000.0,0001.86,0004.33,0001.13
2024-04-29 13:23:00,SystemResetWarning,0826.9,4.99,000.00,024.2,023.5,000.0,032.6,026.0,021.6,0000.0,0001.89,0003.62,0001.15
2024-04-29 13:24:00,SystemResetWarning,0826.8,5.01,000.00,024.2,023.5,000.0,032.7,026.0,022.1,0000.0,0001.97,0003.84,0001.16
2024-04-29 13:25:00,SystemResetWarning,0826.9,5.01,000.00,024.2,023.5,000.0,032.7,026.0,020.7,0000.0,0001.96,0003.80,0001.16
2024-04-29 13:26:00,SystemResetWarning,0826.9,5.01,000.00,024.2,023.5,000.0,032.7,026.0,021.2,0000.0,0002.02,0004.00,0001.19
2024-04-29 13:27:00,SystemResetWarning,0826.9,4.99,000.00,024.2,023.5,000.0,032.7,026.0,020.2,0000.0,0002.06,0004.12,0001.21
2024-04-29 13:28:00,SystemResetWarning,0826.9,4.99,000.00,024.2,023.5,000.0,032.7,026.0,019.7,0000.0,0002.03,0004.02,0001.22
2024-04-29 13:29:00,SystemResetWarning,0826.9,5.02,000.00,024.2,023.5,000.0,032.7,026.1,019.9,0000.0,0001.96,0003.82,0001.22
2024-04-29 13:30:00,SystemResetWarning,0826.9,5.00,000.00,024.2,023.5,000.0,032.7,026.1,020.0,0000.0,0001.93,0003.77,0001.23
2024-04-29 13:31:00,SystemResetWarning,0826.9,4.98,000.00,024.2,023.5,000.0,032.7,026.1,019.6,0000.0,0001.99,0004.51,0001.24
2024-04-29 13:32:00,SystemResetWarning,0826.9,5.00,000.00,024.2,023.6,000.0,032.7,026.1,020.0,0000.0,0002.04,0005.01,0001.25
2024-04-29 13:33:00,SystemResetWarning,0826.9,5.02,000.00,024.2,023.6,000.0,032.7,026.1,020.2,0000.0,0002.06,0005.38,0001.25
2024-04-29 13:34:00,SystemResetWarning,0826.9,5.00,000.00,024.2,023.6,000.0,032.7,026.1,021.3,0000.0,0002.04,0005.62,0001.23
2024-04-29 13:35:00,SystemResetWarning,0826.8,4.98,000.00,024.2,023.6,000.0,032.7,026.1,020.8,0000.0,0001.97,0005.42,0001.22
2024-04-29 13:36:00,SystemResetWarning,0826.8,5.01,000.00,024.2,023.6,000.0,032.7,026.1,020.0,0000.0,0002.01,0005.57,0001.22
2024-04-29 13:37:00,SystemResetWarning,0826.8,5.01,000.00,024.3,023.6,000.0,032.7,026.1,019.8,0000.0,0002.02,0005.50,0001.21
2024-04-29 13:38:00,SystemResetWarning,0826.8,5.00,000.00,024.3,023.6,000.0,032.7,026.1,019.2,0000.0,0001.97,0005.35,0001.19
2024-04-29 13:39:00,SystemResetWarning,0826.8,5.00,000.00,024.3,023.6,000.0,032.7,026.1,019.5,0000.0,0001.99,0005.49,0001.19
2024-04-29 13:40:00,SystemResetWarning,0826.8,4.99,000.00,024.3,023.6,000.0,032.7,026.1,020.1,0000.0,0002.02,0005.54,0001.18
2024-04-29 13:41:00,SystemResetWarning,0826.8,5.00,000.00,024.3,023.6,000.0,032.7,026.1,020.6,0000.0,0002.06,0005.64,0001.18
2024-04-29 13:42:00,SystemResetWarning,0826.8,5.00,000.00,024.3,023.6,000.0,032.7,026.1,020.6,0000.0,0002.08,0005.42,0001.17
2024-04-29 13:43:00,SystemResetWarning,0826.8,5.00,000.00,024.3,023.6,000.0,032.7,026.1,020.5,0000.0,0002.05,0004.68,0001.15
2024-04-29 13:44:00,SystemResetWarning,0826.8,5.02,000.00,024.3,023.6,000.0,032.7,026.2,020.4,0000.0,0002.05,0004.88,0001.16
2024-04-29 13:45:00,SystemResetWarning,0826.8,5.01,000.00,024.3,023.7,000.0,032.8,026.1,020.4,0000.0,0002.04,0004.96,0001.16
2024-04-29 13:46:00,SystemResetWarning,0826.8,4.99,000.00,024.3,023.7,000.0,032.8,026.2,020.8,0000.0,0002.03,0004.88,0001.16
2024-04-29 13:47:00,SystemResetWarning,0826.8,4.99,000.00,024.3,023.7,000.0,032.8,026.2,020.0,0000.0,0001.98,0005.29,0001.16
2024-04-29 13:48:00,SystemResetWarning,0826.8,5.00,000.00,024.3,023.7,000.0,032.8,026.2,020.3,0000.0,0001.95,0005.40,0001.17
2024-04-29 13:49:00,SystemResetWarning,0827.0,5.00,000.00,024.3,023.7,000.0,032.8,026.2,021.0,0000.0,0001.96,0005.48,0001.18
2024-04-29 13:50:00,SystemResetWarning,0827.0,5.01,000.00,024.3,023.7,000.0,032.8,026.2,021.1,0000.0,0001.98,0005.62,0001.19
2024-04-29 13:51:00,SystemResetWarning,0826.9,5.01,000.00,024.3,023.7,000.0,032.8,026.2,021.1,0000.0,0002.01,0005.68,0001.20
2024-04-29 13:52:00,SystemResetWarning,0826.9,5.00,000.00,024.3,023.7,000.0,032.8,026.2,020.5,0000.0,0002.01,0005.70,0001.21
2024-04-29 13:53:00,SystemResetWarning,0826.9,5.00,000.00,024.3,023.7,000.0,032.8,026.2,020.5,0000.0,0001.99,0005.66,0001.21
2024-04-29 13:54:00,SystemResetWarning,0826.9,5.00,000.00,024.4,023.7,000.0,032.8,026.2,020.8,0000.0,0001.95,0005.49,0001.20
2024-04-29 13:55:00,SystemResetWarning,0827.0,5.00,000.00,024.4,023.7,000.0,032.8,026.2,021.4,0000.0,0001.91,0005.11,0001.20
2024-04-29 13:56:00,SystemResetWarning,0827.0,5.00,000.00,024.4,023.7,000.0,032.8,026.2,021.5,0000.0,0001.95,0004.74,0001.20
2024-04-29 13:57:00,SystemResetWarning,0826.9,5.01,000.00,024.4,023.7,000.0,032.8,026.2,021.4,0000.0,0001.96,0004.81,0001.19
2024-04-29 13:58:00,SystemResetWarning,0826.9,5.00,000.00,024.4,023.7,000.0,032.8,026.3,020.4,0000.0,0001.97,0005.06,0001.19
2024-04-29 13:59:00,SystemResetWarning,0826.9,5.00,000.00,024.4,023.7,000.0,032.8,026.3,020.2,0000.0,0001.99,0005.32,0001.19
